[[{"header":{"parameterUnit":"m.s-1","parameterCategory":1,"la1":30.2991,"la2":30.254,"lo1":-89.0895,"lo2":-89.0444,"dy":0.0017,"dx":0.0017,"nx":28,"ny":28,"refTime":"2024-02-07T03:00:00:Z","depth":0,"parameterNumber":2,"parameterNumberName":"U-component_of_WINDS"},"data":[0,0,0,0,0,0,0,0,0,0,0,0,0,0,0,0,0,0,0,0,0,0,0,0,0,0,0,0,0,0,0,0,0,0,0,0,0,0,0,0,0,0,0,0,0,0,0,0,0,0,0,0,0,0,0,0,0,0,-4.1743,-4.1744,0,-4.1796,-4.1797,-4.1798,-4.1764,-4.1763,-4.1761,-4.176,-4.1813,-4.1816,-4.1819,0,0,0,0,0,0,0,0,0,0,0,0,0,-4.1612,-4.1615,-4.1743,-4.1744,-4.1744,-4.1796,-4.1797,-4.1798,-4.1765,-4.1763,-4.1761,-4.1759,-4.1812,-4.1816,-4.1819,0,0,0,0,0,0,0,0,0,0,0,0,0,-4.1668,-4.1616,-4.1743,-4.1734,-4.1734,-4.1796,-4.1797,-4.1798,-4.1765,-4.1763,-4.176,-4.1758,-4.1811,-4.1816,-4.182,-4.1893,0,0,-4.1833,-4.1835,0,0,0,0,0,0,0,0,-4.1665,-4.1672,-4.1735,-4.1735,-4.1735,-4.1771,-4.177,-4.183,-4.1766,-4.1753,-4.176,-4.1757,-4.1801,-4.1806,-4.1821,-4.1896,-4.1898,-4.1833,-4.1836,-4.1838,-4.1839,0,0,0,0,0,0,0,-4.1661,-4.167,-4.1764,-4.1736,-4.1736,-4.1727,-4.1733,-4.1782,-4.179,-4.1754,-4.1752,-4.1759,-4.1801,-4.1817,-4.1822,-4.1899,-4.1833,-4.1837,-4.184,-4.1841,-4.2035,-4.2038,0,0,0,0,0,0,-4.1658,-4.1667,-4.1762,-4.1766,-4.1693,-4.1732,-4.1738,-4.1762,-4.1789,-4.1791,-4.1761,-4.1757,-4.1811,-4.1817,-4.1824,-4.191,-4.1838,-4.1842,-4.1844,-4.2033,-4.2036,-4.2039,0,0,0,0,0,0,-4.1655,-4.1667,-4.176,-4.1716,-4.1727,-4.1736,-4.1764,-4.1764,-4.1781,-4.1794,-4.1795,-4.1776,-4.1809,-4.1818,-4.1876,-4.1912,-4.1844,-4.1848,-4.203,-4.2034,-4.2037,-4.2084,0,0,0,0,0,0,-4.1651,-4.1666,-4.1694,-4.1717,-4.173,-4.1812,-4.1766,-4.1767,-4.1788,-4.1784,-4.1809,-4.181,-4.1808,-4.187,-4.188,-4.1916,-4.1851,-4.2026,-4.2031,-4.2036,-4.2079,-4.2089,-4.2097,0,0,0,0,0,-4.1647,-4.1705,-4.1695,-4.1707,-4.1765,-4.1814,-4.1821,-4.1817,-4.1791,-4.1819,-4.1828,-4.181,-4.1907,-4.1876,-4.1888,-4.1925,-4.2024,-4.203,-4.2036,-4.2075,-4.2087,-4.2097,0,0,0,0,0,0,-4.1686,-4.1708,-4.1697,-4.1765,-4.1788,-4.1808,-4.1843,-4.183,-4.1861,-4.1855,-4.185,-4.1856,-4.1916,-4.1927,-4.1892,-4.1998,-4.1961,-4.197,-4.1987,-4.1999,-4.2008,-4.2002,-4.1855,0,0,0,0,0,-4.1702,-4.174,-4.1758,-4.1815,-4.1827,-4.1834,-4.1855,-4.185,-4.1873,-4.1883,-4.1896,-4.1919,-4.1954,-4.1978,-4.2012,-4.2082,-4.2086,-4.2114,-4.2123,-4.213,-4.2136,-4.2173,-4.2185,-4.2057,-4.2057,-4.2057,0,0,-4.1736,-4.1753,-4.1777,-4.1824,-4.1841,-4.1879,-4.1842,-4.1885,-4.1913,-4.1889,-4.1944,-4.1955,-4.198,-4.2045,-4.2074,-4.2056,-4.2173,-4.2138,-4.2143,-4.2146,-4.218,-4.2192,-4.2203,-4.2061,-4.2061,-4.206,0,0,-4.1817,-4.1835,-4.1884,-4.1902,-4.1929,-4.1933,-4.1945,-4.1968,-4.1974,-4.2029,-4.2012,-4.2046,-4.2108,-4.2126,-4.2144,-4.2233,-4.2217,-4.2245,-4.229,-4.2326,-4.2336,-4.2345,-4.2375,-4.2386,-4.2252,-4.2252,-4.2252,0,-4.1856,-4.1914,-4.1911,-4.1955,-4.1975,-4.1957,-4.2006,-4.2024,-4.206,-4.2074,-4.2054,-4.2131,-4.2147,-4.2214,-4.2236,-4.2252,-4.2264,-4.224,-4.2335,-4.2344,-4.2352,-4.238,-4.2392,-4.2255,-4.2255,-4.2254,-4.2254,0,-4.1959,-4.2,-4.2036,-4.2071,-4.2096,-4.2143,-4.2147,-4.2172,-4.2166,-4.2172,-4.2229,-4.2248,-4.2284,-4.2301,-4.2295,-4.2367,-4.2355,-4.2336,-4.2298,-4.2367,-4.2393,-4.2404,-4.2259,-4.2258,-4.2257,-4.2256,0,0,-4.2063,-4.2097,-4.211,-4.2126,-4.2154,-4.2185,-4.2232,-4.2268,-4.2289,-4.2315,-4.2352,-4.2406,-4.2388,-4.2408,-4.2405,-4.2437,-4.2504,-4.2413,-4.2413,-4.2427,-4.2582,-4.2594,-4.2607,-4.2495,-4.2497,-4.2499,-4.2579,0,-4.2144,-4.2223,-4.2222,-4.2295,-4.2332,-4.2316,-4.2356,-4.2378,-4.2385,-4.2417,-4.2426,-4.2462,-4.2437,-4.2449,-4.248,-4.2489,-4.2534,-4.2484,-4.2527,-4.2529,-4.2518,-4.2621,-4.2634,-4.2709,-4.2589,-4.2591,-4.2592,0,-4.2247,-4.2277,-4.2354,-4.2377,-4.2392,-4.2428,-4.246,-4.2492,-4.2517,-4.252,-4.2543,-4.2535,-4.2581,-4.2545,-4.2608,-4.2573,-4.2592,-4.2599,-4.2602,-4.2603,-4.2562,-4.2622,-4.2733,-4.2743,-4.2609,-4.2608,-4.2606,0,-4.2312,-4.2372,-4.2425,-4.2439,-4.2468,-4.2493,-4.2506,-4.2529,-4.255,-4.2579,-4.2593,-4.2628,-4.2646,-4.2672,-4.2674,-4.2648,-4.2736,-4.2701,-4.2739,-4.2739,-4.2755,-4.2753,-4.2867,-4.2773,-4.2773,-4.2772,-4.2772,0,-4.24,-4.2447,-4.2454,-4.2486,-4.2539,-4.2538,-4.259,-4.2601,-4.2621,-4.2655,-4.2644,-4.2676,-4.2678,-4.2711,-4.2713,-4.2763,-4.2772,-4.2775,-4.2774,-4.2774,-4.2773,-4.2783,-4.2777,-4.2775,-4.2775,-4.2774,-4.2774,0,-4.2479,-4.2486,-4.2543,-4.2566,-4.2573,-4.261,-4.263,-4.266,-4.2668,-4.2711,-4.2721,-4.2732,-4.277,-4.2775,-4.282,-4.2822,-4.2881,-4.2877,-4.2873,-4.2871,-4.2907,-4.2902,-4.3029,-4.3044,-4.2943,-4.2944,-4.2944,0,-4.2533,-4.2569,-4.2596,-4.2618,-4.2633,-4.2669,-4.2691,-4.2692,-4.2716,-4.2747,-4.2773,-4.2811,-4.284,-4.2902,-4.2914,-4.2948,-4.2942,-4.2984,-4.2947,-4.2945,-4.2939,-4.2936,-4.2938,-4.299,-4.2991,-4.2992,-4.2993,0,-4.2628,-4.2629,-4.2662,-4.2695,-4.2722,-4.2748,-4.2773,-4.2792,-4.2797,-4.2824,-4.2863,-4.2886,-4.2932,-4.2968,-4.3002,-4.3016,-4.3005,-4.3005,-4.3015,-4.3013,-4.3008,-4.3009,-4.2889,-4.3001,-4.3001,-4.3,-4.2999,-4.2999,-4.2694,-4.2724,-4.2748,-4.2784,-4.2803,-4.2827,-4.2857,-4.2868,-4.29,-4.2937,-4.2937,-4.298,-4.3004,-4.3048,-4.3064,-4.3097,-4.3083,-4.3098,-4.3101,-4.3104,-4.3106,-4.3006,-4.3104,-4.3103,-4.3103,-4.3103,-4.3103,0,-4.2785,-4.28,-4.2833,-4.2868,-4.2897,-4.2886,-4.2913,-4.2937,-4.2975,-4.2998,-4.3028,-4.3072,-4.3108,-4.3123,-4.3158,-4.3182,-4.3177,-4.319,-4.3187,-4.319,-4.3118,-4.3105,-4.3193,-4.3193,-4.3193,-4.3193,-4.3193,-4.3193,-4.2835,-4.2885,-4.289,-4.295,-4.2965,-4.3006,-4.3022,-4.3044,-4.3062,-4.3112,-4.3142,-4.3152,-4.3172,-4.3209,-4.3241,-4.3245,-4.3257,-4.3271,-4.3272,-4.3204,-4.3195,-4.3186,-4.3173,-4.3275,-4.3275,-4.3341,-4.3342,-4.3342]},{"header":{"parameterUnit":"m.s-1","parameterCategory":1,"la1":30.2991,"la2":30.254,"lo1":-89.0895,"lo2":-89.0444,"dy":0.0017,"dx":0.0017,"nx":28,"ny":28,"refTime":"2024-02-07T03:00:00:Z","depth":0,"parameterNumber":3,"parameterNumberName":"V-component_of_WINDS"},"data":[0,0,0,0,0,0,0,0,0,0,0,0,0,0,0,0,0,0,0,0,0,0,0,0,0,0,0,0,0,0,0,0,0,0,0,0,0,0,0,0,0,0,0,0,0,0,0,0,0,0,0,0,0,0,0,0,0,0,1.3739,1.3739,0,1.3791,1.3791,1.3792,1.3808,1.3808,1.3807,1.3807,1.3864,1.3866,1.3867,0,0,0,0,0,0,0,0,0,0,0,0,0,1.3657,1.3658,1.3738,1.3739,1.374,1.3791,1.3791,1.3792,1.3808,1.3808,1.3807,1.3807,1.3863,1.3866,1.3868,0,0,0,0,0,0,0,0,0,0,0,0,0,1.3699,1.3659,1.3738,1.3754,1.3756,1.3791,1.3791,1.3792,1.3808,1.3808,1.3807,1.3807,1.3863,1.3865,1.3868,1.3892,0,0,1.3876,1.3877,0,0,0,0,0,0,0,0,1.3697,1.3702,1.3751,1.3753,1.3755,1.3792,1.3784,1.3826,1.3808,1.3788,1.3807,1.3807,1.3841,1.3845,1.3856,1.3895,1.3897,1.3876,1.3878,1.3879,1.388,0,0,0,0,0,0,0,1.3694,1.37,1.3759,1.3752,1.3754,1.376,1.3765,1.3792,1.3816,1.379,1.3791,1.3797,1.3842,1.3853,1.3857,1.3898,1.3876,1.3878,1.388,1.3881,1.3962,1.3963,0,0,0,0,0,0,1.3688,1.3697,1.3758,1.3761,1.3724,1.3761,1.3768,1.3781,1.3816,1.3821,1.3797,1.3798,1.3849,1.3854,1.3859,1.3891,1.3879,1.3881,1.3883,1.3962,1.3962,1.3963,0,0,0,0,0,0,1.3686,1.3693,1.3756,1.373,1.3738,1.3763,1.3778,1.3782,1.3794,1.3821,1.3826,1.3804,1.3849,1.3856,1.3884,1.3894,1.3883,1.3885,1.3961,1.3962,1.3963,1.3955,0,0,0,0,0,0,1.3683,1.3692,1.37,1.373,1.3739,1.3778,1.3778,1.3783,1.3798,1.3799,1.3829,1.3834,1.3849,1.388,1.3887,1.3897,1.3887,1.396,1.3962,1.3963,1.3954,1.3955,1.3956,0,0,0,0,0,1.368,1.3696,1.3701,1.3708,1.375,1.3778,1.3784,1.38,1.3798,1.3808,1.3826,1.3833,1.3892,1.3883,1.3891,1.3902,1.396,1.3961,1.3962,1.3954,1.3955,1.3956,0,0,0,0,0,0,1.3668,1.37,1.3705,1.3731,1.3752,1.3781,1.3793,1.38,1.3823,1.3823,1.3843,1.385,1.3877,1.3893,1.3882,1.3928,1.3926,1.3929,1.3917,1.3918,1.3919,1.3915,1.3889,0,0,0,0,0,1.3668,1.3687,1.3715,1.3735,1.3745,1.3767,1.378,1.3791,1.3814,1.3823,1.3843,1.3866,1.389,1.3905,1.3928,1.3957,1.3965,1.3969,1.397,1.397,1.3972,1.399,1.3993,1.3967,1.3967,1.3967,0,0,1.3669,1.3689,1.37,1.3733,1.375,1.3771,1.3775,1.3796,1.3812,1.3827,1.3855,1.3871,1.3898,1.3927,1.3941,1.394,1.3981,1.3972,1.3972,1.3974,1.3992,1.3994,1.3997,1.3968,1.3968,1.3968,0,0,1.3681,1.3697,1.3716,1.3734,1.376,1.3775,1.3779,1.3808,1.3819,1.3847,1.3859,1.388,1.392,1.3939,1.3954,1.3976,1.3984,1.3983,1.3987,1.4005,1.4007,1.4009,1.4018,1.402,1.3985,1.3985,1.3985,0,1.3678,1.3709,1.3725,1.3747,1.3762,1.3775,1.3796,1.3812,1.3845,1.3856,1.3855,1.3907,1.3926,1.3961,1.3966,1.3978,1.3985,1.3979,1.4005,1.4007,1.4009,1.4018,1.4021,1.3985,1.3985,1.3985,1.3985,0,1.3705,1.3727,1.3739,1.377,1.3787,1.3808,1.3829,1.3844,1.3854,1.387,1.39,1.3924,1.3953,1.3962,1.3972,1.3999,1.3998,1.4001,1.3999,1.4011,1.402,1.4023,1.3985,1.3985,1.3985,1.3985,0,0,1.3709,1.375,1.3754,1.3769,1.38,1.3818,1.3841,1.3868,1.3882,1.3905,1.3925,1.396,1.3963,1.398,1.3993,1.4008,1.4026,1.401,1.4011,1.4012,1.4058,1.4056,1.4059,1.4031,1.4032,1.4032,1.4056,0,1.3726,1.3765,1.3781,1.3813,1.3834,1.3849,1.3869,1.3891,1.3907,1.3928,1.3947,1.3971,1.3973,1.3984,1.4,1.402,1.4035,1.4019,1.4052,1.4053,1.4044,1.4064,1.4061,1.4082,1.406,1.406,1.4061,0,1.3749,1.3772,1.3806,1.3836,1.3845,1.3863,1.389,1.391,1.3937,1.3948,1.3968,1.398,1.4006,1.4003,1.4041,1.4029,1.4044,1.4057,1.4058,1.4062,1.4057,1.4068,1.4089,1.4092,1.4066,1.4065,1.4065,0,1.3749,1.3789,1.3815,1.3827,1.3862,1.3874,1.389,1.3916,1.3932,1.3957,1.3968,1.3996,1.4012,1.4034,1.4055,1.405,1.4091,1.4089,1.4102,1.4102,1.411,1.4109,1.4133,1.4119,1.4119,1.4119,1.4119,0,1.3766,1.3786,1.3815,1.3831,1.3856,1.3875,1.39,1.3916,1.394,1.3961,1.3975,1.3995,1.4021,1.4044,1.4061,1.409,1.4097,1.4108,1.4112,1.4107,1.4105,1.4117,1.4116,1.412,1.412,1.4119,1.4119,0,1.377,1.379,1.3819,1.3851,1.3859,1.3876,1.3904,1.3921,1.3938,1.3964,1.3972,1.4,1.4028,1.4051,1.4089,1.41,1.4131,1.4136,1.4122,1.4124,1.4136,1.4135,1.4168,1.4174,1.4156,1.4156,1.4156,0,1.3779,1.3795,1.3828,1.3843,1.3858,1.3881,1.3898,1.3919,1.3937,1.3969,1.3983,1.4012,1.4037,1.4083,1.4107,1.4137,1.4142,1.4152,1.4147,1.4141,1.4143,1.4142,1.4145,1.4153,1.4153,1.4153,1.4153,0,1.3793,1.3803,1.3825,1.3853,1.3872,1.3895,1.3917,1.3929,1.3955,1.3974,1.4003,1.4022,1.4061,1.4091,1.4123,1.4141,1.4152,1.4155,1.4159,1.4154,1.4145,1.4151,1.4124,1.4154,1.4153,1.4153,1.4153,1.4153,1.3801,1.3816,1.3842,1.3868,1.3888,1.3909,1.3927,1.3947,1.3971,1.4003,1.4015,1.4045,1.4074,1.4118,1.4137,1.4162,1.4163,1.4169,1.4171,1.4173,1.4172,1.4141,1.4168,1.4168,1.4168,1.4168,1.4168,0,1.3816,1.3834,1.3857,1.3889,1.391,1.3917,1.3944,1.3961,1.3987,1.4012,1.4036,1.4071,1.4101,1.4128,1.4159,1.4175,1.4181,1.4182,1.4181,1.4186,1.4169,1.4162,1.4177,1.4177,1.4177,1.4177,1.4177,1.4177,1.3827,1.3854,1.3867,1.3905,1.3923,1.3952,1.3967,1.3987,1.4008,1.4045,1.4069,1.4087,1.4114,1.4147,1.4176,1.4183,1.4194,1.4195,1.4204,1.4188,1.4187,1.4186,1.4179,1.4197,1.4197,1.4218,1.4218,1.4219]}]]